Tracking 19193 objects as of 24-Jun-2018
HD Live streaming from Space Station
objects crossing your sky now

FENGYUN 1C DEB

Track FENGYUN 1C DEB now!
10-day predictions


NORAD ID: 41007
Int'l Code: 1999-025EXM
Perigee: 846.2 km
Apogee: 1,121.8 km
Inclination: 100.0 °
Period: 104.6 minutes
Semi major axis: 7354 km
RCS: Unknown
Launch date: May 10, 1999
Source: People's Republic of China (PRC)
Launch site: Taiyaun Space Center, China (TSC)

Note: This is SATELLITE DEBRIS
aabbcc
Your satellite tracking list
Your tracking list is empty




NASA's NSSDC Master Catalog

Two Line Element Set (TLE):
1 41007U 99025EXM 18167.81169239  .00000455  00000-0  45464-3 0  9999
2 41007  99.9756  20.3437 0187374 284.7620  73.2833 13.76356539196861
Source of the keplerian elements: AFSPC